Weather History for Tacoma Narrows, WA

Change the Weather History Date:

Friday, January 13, 2012

  Actual Average Record
Temperature  
Mean Temperature 34 °F -  
Max Temperature 39 °F 43 °F 53 °F (2011)
Min Temperature 28 °F 37 °F 25 °F (2007)
Degree Days  
Heating Degree Days 32    
Moisture  
Dew Point 32 °F    
Average Humidity 95    
Maximum Humidity 100    
Minimum Humidity 73    
Precipitation  
Precipitation 0.01 in - - ()
Sea Level Pressure  
Sea Level Pressure 30.27 in    
Wind  
Wind Speed 1 mph (NW)    
Max Wind Speed 7 mph    
Max Gust Speed -    
Visibility 3 miles    
Events Fog    
Averages and records for this station are not official NWS values.
T = Trace of Precipitation, MM = Missing Value Source: NWS Daily Summary

Daily Weather History Graph

Daily Weather History Graph

Search for Another Location

Airport:

Trip Planner

Search our weather history database for the weather conditions in past years. The results will help you decide how hot, cold, wet, or windy it might be!

Date:

Astronomy

Jan. 13, 2012 Rise Set
Actual Time 7:54 AM PST 4:44 PM PST
Civil Twilight 7:19 AM PST 5:18 PM PST
Nautical Twilight 6:41 AM PST 5:57 PM PST
Astronomical Twilight 6:04 AM PST 6:33 PM PST
Moon 10:29 PM PST (1/13) 9:48 AM PST (1/13)
Length of Visible Light 9h 59m
Length of Day
8h 50m
Waning Gibbous, 77% of the Moon is Illuminated
Jan 13
Waning Gibbous
Jan 16
Last Quarter
Jan 22
New
Jan 30
First Quarter
Feb 7
Full

Hourly Weather History & Observations

Time (PST) Temp. Windchill Dew Point Humidity Pressure Visibility Wind Dir Wind Speed Gust Speed Precip Events Conditions
12:53 AM 36.0 °F - 33.1 °F 89% 30.32 in 10.0 mi Calm Calm - N/A   Clear
1:35 AM 30.2 °F - 30.2 °F 100% 30.30 in 1.8 mi Calm Calm - N/A   Clear
1:44 AM 32.0 °F - 30.2 °F 93% 30.31 in 0.5 mi Calm Calm - N/A Fog Fog
1:53 AM 33.1 °F - 30.9 °F 92% 30.31 in 0.8 mi Calm Calm - N/A   Mist
1:55 AM 33.8 °F - 32.0 °F 93% 30.30 in 1.2 mi Calm Calm - N/A   Partly Cloudy
1:58 AM 33.8 °F - 33.8 °F 100% 30.30 in 4.0 mi Calm Calm - N/A   Partly Cloudy
2:10 AM 30.2 °F - 30.2 °F 100% 30.30 in 1.8 mi Calm Calm - N/A   Clear
2:19 AM 32.0 °F - 30.2 °F 93% 30.29 in 1.8 mi Calm Calm - N/A   Scattered Clouds
2:25 AM 33.8 °F - 32.0 °F 93% 30.30 in 0.8 mi Calm Calm - N/A   Mist
2:37 AM 30.2 °F - 28.4 °F 93% 30.30 in 0.2 mi Calm Calm - N/A Fog Light Freezing Fog
2:49 AM 30.2 °F - 30.2 °F 100% 30.30 in 0.2 mi Calm Calm - N/A Fog Light Freezing Fog
2:53 AM 30.9 °F - 30.0 °F 96% 30.31 in 0.2 mi Calm Calm - N/A Fog Light Freezing Fog
3:53 AM 32.0 °F - 30.9 °F 96% 30.31 in 0.2 mi Calm Calm - N/A Fog Fog
4:02 AM 33.8 °F - 33.8 °F 100% 30.30 in 1.2 mi Calm Calm - N/A   Mostly Cloudy
4:07 AM 33.8 °F - 32.0 °F 93% 30.30 in 2.5 mi Calm Calm - N/A   Scattered Clouds
4:11 AM 33.8 °F 30.8 °F 32.0 °F 93% 30.31 in 1.0 mi NNW 3.5 mph - N/A   Mist
4:18 AM 33.8 °F 30.8 °F 32.0 °F 93% 30.31 in 0.2 mi North 3.5 mph - N/A Fog Fog
4:27 AM 33.8 °F - 33.8 °F 100% 30.31 in 0.2 mi Calm Calm - N/A Fog Fog
4:37 AM 33.8 °F 30.8 °F 33.8 °F 100% 30.31 in 0.2 mi NNE 3.5 mph - N/A Fog Fog
4:44 AM 33.8 °F 30.8 °F 33.8 °F 100% 30.31 in 0.5 mi NE 3.5 mph - N/A Fog Fog
4:53 AM 34.0 °F - 34.0 °F 100% 30.32 in 0.5 mi Calm Calm - N/A Fog Fog
5:06 AM 33.8 °F - 33.8 °F 100% 30.31 in 2.0 mi Calm Calm - N/A   Overcast
5:23 AM 33.8 °F - 33.8 °F 100% 30.31 in 4.0 mi Calm Calm - N/A   Mostly Cloudy
5:33 AM 33.8 °F - 33.8 °F 100% 30.31 in 3.0 mi Calm Calm - N/A   Scattered Clouds
5:53 AM 34.0 °F - 33.1 °F 96% 30.32 in 4.0 mi Calm Calm - N/A   Clear
6:07 AM 33.8 °F - 33.8 °F 100% 30.31 in 5.0 mi Calm Calm - N/A   Partly Cloudy
6:21 AM 30.2 °F - 30.2 °F 100% 30.31 in 1.8 mi Calm Calm - N/A   Clear
6:23 AM 30.2 °F - 30.2 °F 100% 30.30 in 1.0 mi Calm Calm - N/A   Mist
6:31 AM 30.2 °F - 30.2 °F 100% 30.30 in 0.8 mi Calm Calm - N/A   Mist
6:45 AM 28.4 °F 24.6 °F 28.4 °F 100% 30.31 in 0.2 mi WSW 3.5 mph - N/A Fog Light Freezing Fog
6:53 AM 28.9 °F - 28.9 °F 100% 30.32 in 0.2 mi Calm Calm - N/A Fog Light Freezing Fog
7:14 AM 30.2 °F - 30.2 °F 100% 30.31 in 0.2 mi Calm Calm - N/A Fog Light Freezing Fog
7:53 AM 30.9 °F - 30.9 °F 100% 30.32 in 0.2 mi Calm Calm - N/A Fog Light Freezing Fog
8:53 AM 32.0 °F - 32.0 °F 100% 30.32 in 0.2 mi Calm Calm - N/A Fog Fog
9:53 AM 33.1 °F - 33.1 °F 100% 30.31 in 0.2 mi Calm Calm - 0.01 in Fog Fog
10:53 AM 34.0 °F - 33.1 °F 96% 30.30 in 0.2 mi Calm Calm - N/A Fog Fog
11:07 AM 33.8 °F - 33.8 °F 100% 30.28 in 0.2 mi Calm Calm - N/A Fog Fog
11:18 AM 35.6 °F - 33.8 °F 93% 30.27 in 0.2 mi Calm Calm - N/A Fog Fog
11:53 AM 35.1 °F 32.2 °F 34.0 °F 96% 30.28 in 0.8 mi NW 3.5 mph - N/A   Mist
12:24 PM 35.6 °F - 35.6 °F 100% 30.24 in 1.5 mi Calm Calm - N/A   Mostly Cloudy
12:40 PM 37.4 °F - 35.6 °F 93% 30.23 in 3.0 mi Calm Calm - N/A   Mostly Cloudy
12:49 PM 37.4 °F - 35.6 °F 93% 30.23 in 3.0 mi Calm Calm - N/A   Scattered Clouds
12:53 PM 37.0 °F - 35.1 °F 93% 30.24 in 7.0 mi Calm Calm - N/A   Scattered Clouds
1:53 PM 39.9 °F 37.8 °F 33.1 °F 77% 30.21 in 10.0 mi Variable 3.5 mph - N/A   Clear
2:53 PM 39.9 °F 37.8 °F 33.1 °F 77% 30.20 in 10.0 mi NNE 3.5 mph - N/A   Clear
3:53 PM 39.0 °F - 33.1 °F 79% 30.18 in 10.0 mi Calm Calm - N/A   Clear
4:53 PM 37.0 °F - 33.1 °F 86% 30.17 in 10.0 mi Calm Calm - N/A   Clear
5:53 PM 37.0 °F - 33.1 °F 86% 30.15 in 10.0 mi Calm Calm - N/A   Clear
6:53 PM 36.0 °F - 32.0 °F 86% 30.13 in 10.0 mi Calm Calm - N/A   Clear
7:53 PM 36.0 °F - 33.1 °F 89% 30.11 in 10.0 mi Calm Calm - N/A   Clear
8:53 PM 37.0 °F 33.3 °F 35.1 °F 93% 30.10 in 9.0 mi South 4.6 mph - N/A   Partly Cloudy
9:53 PM 37.9 °F 35.5 °F 36.0 °F 93% 30.09 in 8.0 mi South 3.5 mph - N/A   Mostly Cloudy
10:53 PM 37.9 °F 33.5 °F 35.1 °F 89% 30.07 in 10.0 mi South 5.8 mph - N/A   Overcast
11:53 PM 39.0 °F 34.0 °F 30.9 °F 73% 30.05 in 10.0 mi SSW 6.9 mph - N/A   Overcast